Hinesville, GA

9:26 PM EST on February 07, 2016 (GMT -0500)
Wright Army Air Field

Weather History for KLHW - January, 2015

Change the Weather History Date:

Saturday, January 24, 2015

  Actual Average Record
Temperature  
Mean Temperature 56 °F -  
Max Temperature 68 °F 64 °F 82 °F (1974)
Min Temperature 42 °F 40 °F 15 °F (2003)
Degree Days  
Heating Degree Days 10    
Growing Degree Days 6 (Base 50)    
Moisture  
Dew Point 56 °F    
Average Humidity 84    
Maximum Humidity 94    
Minimum Humidity 46    
Precipitation  
Precipitation 0.65 in - - ()
Sea Level Pressure  
Sea Level Pressure 29.71 in    
Wind  
Wind Speed 11 mph (WSW)    
Max Wind Speed 21 mph    
Max Gust Speed 31 mph    
Visibility 9 miles    
Events Rain , Thunderstorm    
Averages and records for this station are not official NWS values.
T = Trace of Precipitation, MM = Missing Value Source: NWS Daily Summary

Daily Weather History Graph

Daily Weather History Graph

Search for Another Location

Airport or City:

Trip Planner

Search our weather history database for the weather conditions in past years. The results will help you decide how hot, cold, wet, or windy it might be!

Date:

Astronomy

Jan. 24, 2015 Rise Set
Actual Time 7:24 AM EST 5:52 PM EST
Civil Twilight 6:58 AM EST 6:18 PM EST
Nautical Twilight 6:28 AM EST 6:48 PM EST
Astronomical Twilight 5:59 AM EST 7:17 PM EST
Moon 10:10 AM EST (1/24) 10:48 PM EST (1/24)
Length of Visible Light 11h 20m
Length of Day
10h 28m
Waxing Crescent, 23% of the Moon is Illuminated
Jan 24
Waxing Crescent
Jan 26
First Quarter
Feb 3
Full
Feb 11
Last Quarter
Feb 18
New

Hourly Weather History & Observations

Time (EST) Temp. Windchill Dew Point Humidity Pressure Visibility Wind Dir Wind Speed Gust Speed Precip Events Conditions
12:02 AM 66.2 °F - 64.4 °F 94% 29.71 in 10.0 mi South 9.2 mph - N/A Thunderstorm Thunderstorm
12:06 AM 66.2 °F - 64.4 °F 94% 29.71 in 9.0 mi SSW 8.1 mph - N/A Rain , Thunderstorm Light Thunderstorms and Rain
12:19 AM 66.2 °F - 64.4 °F 94% 29.70 in 9.0 mi South 8.1 mph - N/A Rain , Thunderstorm Light Rain
12:22 AM 66.2 °F - 64.4 °F 94% 29.70 in 9.0 mi South 10.4 mph - N/A Thunderstorm Overcast
12:42 AM 68.0 °F - 64.4 °F 88% 29.69 in 7.0 mi SSW 10.4 mph 16.1 mph N/A Rain Light Rain
12:58 AM 67.1 °F - 64.8 °F 92% 29.68 in 8.0 mi South 10.4 mph - 0.01 in Rain Light Rain
1:13 AM 66.2 °F - 64.4 °F 94% 29.67 in 1.8 mi SSW 8.1 mph - N/A Rain Heavy Rain
1:23 AM 66.2 °F - 64.4 °F 94% 29.67 in 4.0 mi SW 9.2 mph - N/A Rain Light Rain
1:28 AM 66.2 °F - 64.4 °F 94% 29.67 in 8.0 mi South 8.1 mph - N/A Rain Light Rain
1:53 AM 68.0 °F - 64.4 °F 88% 29.65 in 10.0 mi SSW 10.4 mph - N/A Rain Light Rain
1:58 AM 67.1 °F - 65.1 °F 93% 29.65 in 10.0 mi South 9.2 mph - 0.25 in Rain Light Rain
2:04 AM 68.0 °F - 64.4 °F 88% 29.64 in 9.0 mi SSW 11.5 mph - N/A   Overcast
2:05 AM 68.0 °F - 64.4 °F 88% 29.64 in 9.0 mi SSW 12.7 mph - N/A Rain Light Rain
2:15 AM 68.0 °F - 64.4 °F 88% 29.63 in 10.0 mi South 8.1 mph - N/A Rain Light Rain
2:17 AM 68.0 °F - 64.4 °F 88% 29.63 in 10.0 mi South 9.2 mph - N/A   Overcast
2:23 AM 68.0 °F - 64.4 °F 88% 29.64 in 10.0 mi SSW 9.2 mph - N/A Rain Light Rain
2:28 AM 68.0 °F - 64.4 °F 88% 29.64 in 8.0 mi SSW 10.4 mph 16.1 mph N/A Rain Rain
2:33 AM 68.0 °F - 64.4 °F 88% 29.63 in 4.0 mi South 8.1 mph 16.1 mph N/A Rain Heavy Rain
2:43 AM 68.0 °F - 64.4 °F 88% 29.63 in 8.0 mi SSW 10.4 mph - N/A Rain Light Rain
2:48 AM 68.0 °F - 64.4 °F 88% 29.62 in 7.0 mi SSW 8.1 mph - N/A Rain Rain
2:58 AM 67.1 °F - 65.3 °F 94% 29.63 in 6.0 mi SSW 10.4 mph - 0.09 in Rain Light Rain
3:18 AM 68.0 °F - 66.2 °F 94% 29.61 in 5.0 mi SSW 10.4 mph 17.3 mph N/A Rain Heavy Rain
3:23 AM 68.0 °F - 66.2 °F 94% 29.61 in 6.0 mi SSW 10.4 mph - N/A Rain Light Rain
3:28 AM 68.0 °F - 66.2 °F 94% 29.61 in 7.0 mi SSW 9.2 mph 18.4 mph N/A Rain Light Rain
3:33 AM 68.0 °F - 66.2 °F 94% 29.61 in 2.5 mi SW 13.8 mph 18.4 mph N/A Rain Heavy Rain
3:38 AM 68.0 °F - 66.2 °F 94% 29.61 in 3.0 mi SW 10.4 mph - N/A Rain Rain
3:43 AM 68.0 °F - 66.2 °F 94% 29.61 in 6.0 mi SW 10.4 mph - N/A Rain Rain
3:53 AM 68.0 °F - 66.2 °F 94% 29.60 in 4.0 mi SSW 9.2 mph - N/A Rain Heavy Rain
3:58 AM 67.1 °F - 65.3 °F 94% 29.61 in 5.0 mi SW 9.2 mph - 0.22 in Rain Rain
4:03 AM 66.2 °F - 64.4 °F 94% 29.60 in 8.0 mi SW 10.4 mph - N/A Rain Rain
4:08 AM 66.2 °F - 64.4 °F 94% 29.60 in 9.0 mi SW 9.2 mph - N/A Rain Light Rain
4:28 AM 66.2 °F - 64.4 °F 94% 29.61 in 7.0 mi West 19.6 mph 31.1 mph N/A Rain Light Rain
4:38 AM 64.4 °F - 62.6 °F 94% 29.62 in 9.0 mi West 13.8 mph 23.0 mph N/A Rain Light Rain
4:43 AM 64.4 °F - 60.8 °F 88% 29.61 in 10.0 mi West 15.0 mph 23.0 mph N/A Rain Light Rain
4:53 AM 62.6 °F - 60.8 °F 94% 29.62 in 10.0 mi West 16.1 mph 25.3 mph N/A Rain Light Rain
4:58 AM 63.1 °F - 60.4 °F 91% 29.63 in 10.0 mi West 12.7 mph 25.3 mph 0.06 in Rain Light Rain
5:01 AM 62.6 °F - 60.8 °F 94% 29.62 in 10.0 mi West 16.1 mph 23.0 mph N/A   Overcast
5:04 AM 62.6 °F - 60.8 °F 94% 29.62 in 10.0 mi West 12.7 mph 23.0 mph N/A Rain Light Rain
5:14 AM 62.6 °F - 59.0 °F 88% 29.62 in 10.0 mi West 12.7 mph 20.7 mph N/A Rain Light Rain
5:19 AM 62.6 °F - 59.0 °F 88% 29.62 in 10.0 mi West 15.0 mph 24.2 mph N/A Rain Light Rain
5:24 AM 62.6 °F - 59.0 °F 88% 29.63 in 10.0 mi West 12.7 mph 24.2 mph N/A Rain Light Rain
5:29 AM 62.6 °F - 59.0 °F 88% 29.63 in 10.0 mi WNW 12.7 mph 24.2 mph N/A Rain Light Rain
5:34 AM 62.6 °F - 59.0 °F 88% 29.63 in 10.0 mi WNW 20.7 mph 25.3 mph N/A Rain Light Rain
5:44 AM 60.8 °F - 57.2 °F 88% 29.65 in 10.0 mi WNW 16.1 mph - N/A Rain Light Rain
5:51 AM 60.8 °F - 57.2 °F 88% 29.65 in 10.0 mi WNW 17.3 mph 24.2 mph N/A   Overcast
5:56 AM 59.0 °F - 55.4 °F 88% 29.65 in 10.0 mi WNW 15.0 mph 24.2 mph N/A   Overcast
5:59 AM 59.5 °F - 56.3 °F 89% 29.67 in 10.0 mi WNW 17.3 mph 24.2 mph 0.02 in   Overcast
6:04 AM 59.0 °F - 55.4 °F 88% 29.66 in 10.0 mi WNW 16.1 mph 21.9 mph N/A   Overcast
6:14 AM 57.2 °F - 53.6 °F 88% 29.68 in 10.0 mi WNW 18.4 mph 23.0 mph N/A   Overcast
6:34 AM 55.4 °F - 53.6 °F 94% 29.69 in 10.0 mi WNW 12.7 mph 21.9 mph N/A   Overcast
6:58 AM 55.0 °F - 52.0 °F 89% 29.72 in 10.0 mi WNW 16.1 mph 21.9 mph N/A   Overcast
7:53 AM 51.8 °F - 48.2 °F 88% 29.76 in 10.0 mi West 18.4 mph 28.8 mph N/A   Overcast
7:58 AM 52.3 °F - 48.4 °F 86% 29.77 in 10.0 mi West 17.3 mph 31.1 mph N/A   Overcast
8:08 AM 51.8 °F - 48.2 °F 88% 29.77 in 10.0 mi West 15.0 mph 24.2 mph N/A   Overcast
8:13 AM 51.8 °F - 48.2 °F 88% 29.77 in 10.0 mi West 18.4 mph 26.5 mph N/A   Overcast
8:58 AM 51.8 °F - 46.4 °F 82% 29.80 in 10.0 mi West 13.8 mph 24.2 mph N/A   Overcast
9:08 AM 51.8 °F - 44.6 °F 76% 29.79 in 10.0 mi West 20.7 mph 26.5 mph N/A   Overcast
9:58 AM 52.5 °F - 44.2 °F 73% 29.81 in 10.0 mi West 16.1 mph 24.2 mph N/A   Overcast
10:48 AM 53.6 °F - 44.6 °F 72% 29.82 in 10.0 mi West 20.7 mph 26.5 mph N/A   Overcast
10:58 AM 52.9 °F - 45.1 °F 75% 29.83 in 10.0 mi West 15.0 mph 31.1 mph N/A   Overcast
11:58 AM 52.0 °F - 44.2 °F 75% 29.84 in 10.0 mi West 12.7 mph 26.5 mph N/A   Overcast
12:58 PM 51.6 °F - 43.0 °F 72% 29.84 in 10.0 mi West 20.7 mph 28.8 mph N/A   Overcast
1:53 PM 55.4 °F - 41.0 °F 58% 29.81 in 10.0 mi WNW 16.1 mph 25.3 mph N/A   Scattered Clouds
1:58 PM 55.2 °F - 41.5 °F 60% 29.82 in 10.0 mi WNW 20.7 mph 28.8 mph N/A   Scattered Clouds
2:58 PM 56.1 °F - 39.7 °F 54% 29.83 in 10.0 mi West 17.3 mph 26.5 mph N/A   Clear
3:58 PM 56.5 °F - 36.0 °F 46% 29.85 in 10.0 mi West 15.0 mph 27.6 mph N/A   Clear
4:58 PM 55.4 °F - 36.1 °F 48% 29.85 in 10.0 mi West 12.7 mph 19.6 mph N/A   Clear
5:58 PM 52.2 °F - 36.3 °F 55% 29.87 in 10.0 mi West 11.5 mph - N/A   Clear
6:58 PM 49.8 °F - 36.1 °F 59% 29.92 in 10.0 mi WSW 6.9 mph - N/A   Clear
7:58 PM 48.4 °F - 35.6 °F 61% 29.93 in 10.0 mi West 9.2 mph - N/A   Clear
8:58 PM 45.0 °F 40.6 °F 36.0 °F 71% 29.96 in 10.0 mi WSW 8.1 mph - N/A   Clear
9:58 PM 43.5 °F 40.1 °F 35.2 °F 73% 29.97 in 10.0 mi WSW 5.8 mph - N/A   Clear
10:58 PM 43.2 °F 39.7 °F 34.2 °F 71% 29.97 in 10.0 mi West 5.8 mph - N/A   Clear
11:58 PM 42.3 °F 39.4 °F 32.9 °F 69% 29.97 in 10.0 mi West 4.6 mph - N/A   Clear